Change the Weather History Date:

Thursday, December 6, 2012

  Actual Average Record
Temperature  
Mean Temperature 33 °F -  
Max Temperature 38 °F 34 °F 53 °F (1998)
Min Temperature 28 °F 26 °F 2 °F (1977)
Degree Days  
Heating Degree Days 32    
Moisture  
Dew Point 24 °F    
Average Humidity 72    
Maximum Humidity 85    
Minimum Humidity 63    
Precipitation  
Precipitation 0.00 in - - ()
Sea Level Pressure  
Sea Level Pressure 30.00 in    
Wind  
Wind Speed 11 mph (South)    
Max Wind Speed 16 mph    
Max Gust Speed 26 mph    
Visibility 10 miles    
Events Rain , Snow    
Averages and records for this station are not official NWS values.
T = Trace of Precipitation, MM = Missing Value Source: NWS Daily Summary

Daily Weather History Graph

Daily Weather History Graph

Search for Another Location

Airport or City:

Trip Planner

Search our weather history database for the weather conditions in past years. The results will help you decide how hot, cold, wet, or windy it might be!

Date:

Astronomy

Dec. 06, 2012 Rise Set
Actual Time 8:05 AM EST 4:53 PM EST
Civil Twilight 7:31 AM EST 5:28 PM EST
Nautical Twilight 6:53 AM EST 6:05 PM EST
Astronomical Twilight 6:17 AM EST 6:41 PM EST
Moon No Moon Rise 12:39 PM EST (12/6)
Length of Visible Light 9h 56m
Length of Day
8h 48m
Waning Gibbous, 49% of the Moon is Illuminated
Dec 6
Waning Gibbous
Dec 13
New
Dec 20
First Quarter
Dec 28
Full
Jan 4
Last Quarter

Hourly Weather History & Observations

Time (EST) Temp. Windchill Dew Point Humidity Pressure Visibility Wind Dir Wind Speed Gust Speed Precip Events Conditions
12:15 AM 28.4 °F 19.7 °F 20.5 °F 72% 30.26 in 10.0 mi SSE 9.2 mph 17.3 mph N/A   Clear
12:36 AM 28.4 °F 19.1 °F 20.7 °F 73% 30.25 in 10.0 mi South 10.4 mph 16.1 mph N/A   Clear
12:55 AM 28.4 °F 18.5 °F 20.1 °F 71% 30.25 in 10.0 mi South 11.5 mph 18.4 mph N/A   Clear
1:15 AM 28.4 °F 19.1 °F 19.9 °F 71% 30.24 in 10.0 mi South 10.4 mph 19.6 mph N/A   Scattered Clouds
1:36 AM 28.4 °F 19.7 °F 19.6 °F 70% 30.24 in 10.0 mi South 9.2 mph 18.4 mph N/A   Clear
1:55 AM 28.8 °F 19.5 °F 19.9 °F 70% 30.24 in 10.0 mi South 10.4 mph 18.4 mph N/A   Scattered Clouds
2:15 AM 28.8 °F 19.5 °F 20.1 °F 70% 30.24 in 10.0 mi SSE 10.4 mph 16.1 mph N/A   Scattered Clouds
2:36 AM 28.8 °F 20.2 °F 20.3 °F 71% 30.23 in 10.0 mi SSE 9.2 mph 17.3 mph N/A   Clear
2:55 AM 28.8 °F 19.5 °F 21.0 °F 73% 30.22 in 10.0 mi SSE 10.4 mph 16.1 mph N/A   Scattered Clouds
3:15 AM 28.4 °F 20.4 °F 21.0 °F 74% 30.21 in 10.0 mi SSE 8.1 mph - N/A   Scattered Clouds
3:36 AM 28.4 °F 18.5 °F 21.2 °F 74% 30.20 in 10.0 mi SSE 11.5 mph 19.6 mph N/A   Clear
3:55 AM 28.8 °F 19.0 °F 21.4 °F 74% 30.20 in 10.0 mi SSE 11.5 mph 19.6 mph N/A   Clear
4:16 AM 28.8 °F 19.5 °F 21.4 °F 74% 30.19 in 10.0 mi SSE 10.4 mph 21.9 mph N/A   Clear
4:36 AM 28.4 °F 19.1 °F 21.2 °F 74% 30.18 in 10.0 mi South 10.4 mph 21.9 mph N/A   Clear
4:55 AM 28.9 °F 18.6 °F 21.6 °F 74% 30.17 in 10.0 mi SSE 12.7 mph 18.4 mph N/A   Clear
5:16 AM 28.9 °F 19.2 °F 21.6 °F 74% 30.17 in 10.0 mi SSE 11.5 mph 18.4 mph N/A   Clear
5:36 AM 29.1 °F 20.0 °F 21.4 °F 73% 30.17 in 10.0 mi South 10.4 mph 19.6 mph N/A   Scattered Clouds
5:55 AM 29.1 °F 19.4 °F 21.7 °F 74% 30.15 in 10.0 mi SSE 11.5 mph 18.4 mph N/A   Scattered Clouds
6:16 AM 29.3 °F 20.8 °F 22.1 °F 75% 30.15 in 10.0 mi SSE 9.2 mph 19.6 mph N/A   Mostly Cloudy
6:36 AM 29.7 °F 20.7 °F 22.5 °F 75% 30.14 in 10.0 mi SSE 10.4 mph 17.3 mph N/A   Mostly Cloudy
7:16 AM 30.0 °F 19.5 °F 22.3 °F 73% 30.13 in 10.0 mi SSE 13.8 mph 18.4 mph N/A   Overcast
7:36 AM 30.0 °F 19.5 °F 22.1 °F 72% 30.11 in 10.0 mi SSE 13.8 mph 18.4 mph N/A   Overcast
7:55 AM 30.0 °F 21.1 °F 22.5 °F 73% 30.10 in 10.0 mi SSE 10.4 mph 19.6 mph N/A   Overcast
8:16 AM 30.2 °F 22.6 °F 22.1 °F 72% 30.09 in 10.0 mi SSE 8.1 mph 20.7 mph N/A   Overcast
8:35 AM 30.2 °F 21.3 °F 22.1 °F 72% 30.08 in 10.0 mi SSE 10.4 mph 18.4 mph N/A   Overcast
8:55 AM 30.6 °F 19.8 °F 21.7 °F 70% 30.07 in 10.0 mi SSE 15.0 mph 21.9 mph N/A   Mostly Cloudy
9:16 AM 30.9 °F 20.2 °F 21.9 °F 69% 30.06 in 10.0 mi South 15.0 mph 20.7 mph N/A   Scattered Clouds
9:35 AM 31.1 °F 22.4 °F 21.7 °F 68% 30.05 in 10.0 mi South 10.4 mph 18.4 mph N/A   Scattered Clouds
9:55 AM 31.5 °F 22.9 °F 21.9 °F 68% 30.04 in 10.0 mi South 10.4 mph 18.4 mph N/A   Mostly Cloudy
10:16 AM 31.8 °F 22.3 °F 21.7 °F 66% 30.03 in 10.0 mi South 12.7 mph 19.6 mph N/A   Overcast
10:35 AM 32.0 °F 24.2 °F 21.9 °F 66% 30.04 in 10.0 mi South 9.2 mph - N/A   Overcast
10:55 AM 32.2 °F 26.7 °F 22.3 °F 67% 30.02 in 10.0 mi South 5.8 mph - N/A   Overcast
11:16 AM 32.5 °F 25.5 °F 22.1 °F 65% 30.01 in 10.0 mi South 8.1 mph - N/A   Overcast
11:35 AM 32.9 °F 24.7 °F 22.3 °F 65% 29.99 in 10.0 mi South 10.4 mph 16.1 mph N/A   Overcast
11:55 AM 32.9 °F 24.1 °F 22.5 °F 65% 29.99 in 10.0 mi South 11.5 mph 18.4 mph N/A   Overcast
12:16 PM 33.4 °F 27.3 °F 22.3 °F 64% 29.97 in 10.0 mi South 6.9 mph - N/A   Overcast
12:35 PM 33.8 °F 27.0 °F 22.5 °F 63% 29.96 in 10.0 mi South 8.1 mph - N/A   Overcast
12:56 PM 34.0 °F 25.5 °F 22.6 °F 63% 29.95 in 10.0 mi South 11.5 mph 18.4 mph N/A Snow Light Snow
1:16 PM 33.8 °F 25.3 °F 24.1 °F 68% 29.92 in 7.0 mi SSE 11.5 mph 19.6 mph N/A Rain Light Rain
1:35 PM 33.4 °F 23.9 °F 26.4 °F 75% 29.92 in 5.0 mi SSE 13.8 mph 19.6 mph N/A   Overcast
1:56 PM 33.4 °F 25.4 °F 28.2 °F 81% 29.91 in 10.0 mi South 10.4 mph 17.3 mph N/A Rain Light Rain
2:16 PM 33.8 °F 26.4 °F 28.8 °F 82% 29.89 in 10.0 mi South 9.2 mph 18.4 mph N/A Snow Light Snow
2:35 PM 33.4 °F 24.8 °F 29.3 °F 85% 29.87 in 10.0 mi SSE 11.5 mph 19.6 mph N/A Rain Light Rain
2:56 PM 33.8 °F 23.5 °F 29.3 °F 84% 29.86 in 10.0 mi SSE 16.1 mph 21.9 mph N/A   Light Drizzle
3:16 PM 34.2 °F 25.2 °F 28.6 °F 80% 29.88 in 10.0 mi South 12.7 mph 20.7 mph N/A   Overcast
3:35 PM 34.3 °F 25.5 °F 27.9 °F 77% 29.87 in 10.0 mi South 12.7 mph 20.7 mph N/A   Overcast
3:56 PM 34.7 °F 25.9 °F 27.3 °F 74% 29.88 in 10.0 mi South 12.7 mph 20.7 mph N/A   Overcast
4:16 PM 34.5 °F 25.3 °F 27.3 °F 75% 29.86 in 10.0 mi SSE 13.8 mph 24.2 mph N/A   Overcast
4:35 PM 35.1 °F 25.5 °F 26.6 °F 71% 29.85 in 10.0 mi South 15.0 mph 23.0 mph N/A   Overcast
4:56 PM 35.6 °F 26.2 °F 26.6 °F 70% 29.84 in 10.0 mi South 15.0 mph 21.9 mph N/A   Overcast
5:16 PM 35.6 °F 27.5 °F 26.2 °F 69% 29.84 in 10.0 mi South 11.5 mph 26.5 mph N/A   Overcast
5:35 PM 35.6 °F 26.6 °F 25.9 °F 68% 29.85 in 10.0 mi South 13.8 mph 21.9 mph N/A   Overcast
5:56 PM 35.6 °F 27.5 °F 25.2 °F 66% 29.84 in 10.0 mi South 11.5 mph 19.6 mph N/A   Overcast
6:15 PM 35.6 °F 28.0 °F 24.8 °F 65% 29.84 in 10.0 mi South 10.4 mph 21.9 mph N/A   Overcast
6:36 PM 36.0 °F 29.0 °F 25.0 °F 64% 29.83 in 10.0 mi South 9.2 mph - N/A   Overcast
6:56 PM 36.3 °F 28.9 °F 25.2 °F 64% 29.83 in 10.0 mi South 10.4 mph 17.3 mph N/A   Overcast
7:15 PM 36.5 °F 29.7 °F 25.3 °F 64% 29.82 in 10.0 mi South 9.2 mph 18.4 mph N/A   Overcast
7:36 PM 36.5 °F 28.7 °F 25.3 °F 64% 29.82 in 10.0 mi South 11.5 mph 18.4 mph N/A   Overcast
7:56 PM 36.7 °F 29.4 °F 26.1 °F 65% 29.82 in 10.0 mi South 10.4 mph 17.3 mph N/A   Overcast
8:15 PM 36.9 °F 30.1 °F 26.2 °F 65% 29.82 in 10.0 mi South 9.2 mph 16.1 mph N/A   Overcast
8:56 PM 37.0 °F 31.6 °F 27.3 °F 68% 29.82 in 10.0 mi South 6.9 mph - N/A   Overcast
9:36 PM 37.4 °F 30.3 °F 29.8 °F 74% 29.81 in 7.0 mi SSW 10.4 mph 16.1 mph N/A Snow Light Snow
9:56 PM 37.6 °F 30.0 °F 30.7 °F 76% 29.80 in 10.0 mi SSW 11.5 mph 19.6 mph N/A Rain Light Rain
10:15 PM 38.3 °F 31.4 °F 30.9 °F 75% 29.80 in 10.0 mi SSW 10.4 mph 19.6 mph N/A   Overcast
10:36 PM 38.3 °F 30.1 °F 31.3 °F 76% 29.80 in 10.0 mi SSW 13.8 mph 18.4 mph N/A   Overcast
10:56 PM 38.3 °F 32.5 °F 32.0 °F 78% 29.80 in 10.0 mi SSW 8.1 mph 18.4 mph N/A   Overcast
11:16 PM 38.3 °F 32.5 °F 32.2 °F 79% 29.80 in 7.0 mi SSW 8.1 mph 16.1 mph N/A   Overcast
11:35 PM 38.3 °F 31.9 °F 32.5 °F 80% 29.80 in 10.0 mi SSW 9.2 mph 16.1 mph N/A   Overcast
11:56 PM 38.3 °F 32.5 °F 32.4 °F 79% 29.80 in 10.0 mi SSW 8.1 mph - N/A   Overcast